SL-14 R/B, 22188

Orbit data source: Space-Track

SL-14 R/B, 22188 is space debris in LEO originally from a launch on Tue, 20 Oct 1992 UTC launched from the Plesetsk Missile And Space Complex (PKMTR). Debris objects in space refer to the collection of defunct objects orbiting the Earth. Examples of debris include non-operational satellites, rocket bodies, and fragments generated from explosions, collisions, or faulty payload assembly.

Loading next visibility...
Identifier
22188, 1992-068G
Orbit
LEO
Country
Flag of CISCIS
Related business
Manufacturer
Yuzhnoe
Mission
Spacecraft
Bus & Motor
S5M, Unknown motor
Mass
1,600 kg wet, 1,600 kg dry
Launch date (UTC)
1992-10-20 (34 years ago)
Launch vehicle
Unknown
Launch site
Plesetsk Missile And Space Complex (PKMTR)
Object type
Payload
Rocket body
Debris
Shape & HBR
Cyl, 1.4 m
Radar Cross Section
7.351 m², Large (>1 m²)

Expand to show TLE details & history
Last TLE update: 10 hours ago

TLE from 10 hours ago
0 SL-14 R/B
1 22188U 92068G   26126.08595845  .00000000  00000-0 -60346-4 0  9991
2 22188  82.5947 121.5858 0044667 213.0643 210.9750 12.54918928536326
Epoch: 2026-05-06T02:03Z
TLE epoch observation values (Epoch: 2026-05-06T02:03:46.810Z)
Latitude
62.90655°
Longitude
-118.66664°
Altitude
1,484.759 km
Speed
7.113 km/s
True Right ascension
09h 04m 55s
True Declination
62° 46' 47"
Sunlit
Object was in daylight at epoch
Visualization orbit readout
Latitude
Unknown
Longitude
Unknown
Altitude
Unknown
Speed
Unknown
Apparent Right ascension
Unknown
Apparent Declination
Unknown
Sunlit
N/A
Visualization observer readout
Local Sidereal Time
19:50:04
Azimuth
Unknown
Elevation
Unknown
Doppler factor
Unknown
Orbital elements
Apogee altitude
1,476.245 km
Perigee altitude
1,406.391 km
Semi-major axis
7,819.455 km
Eccentricity
0.00447
Inclination
82.5947°
RAAN
121.5858°
Arg. of periapsis
213.0643°
True anomaly
210.71283°
Mean anomaly
210.975°
Eccentric anomaly
210.84379°
Mean motion
3.13891 °/min
Orbital period
114.69 mins
BSTAR
-0.000060346
Loading maneuver chart data...
Computing Atmospheric mass density...
Loading historical data...
Loading historical data...
Loading historical data...
Loading historical data...
Loading historical data...
Loading historical data...
Loading historical data...

Documentation

Showing up to 5 results
|